フィッツシモンズ彗星

C/2018 X2 ( Fitzsimmons )

English version
Home page
Updated on May 19, 2019

---------------------------------------------------------------------

・ プロフィール

発見日 2018年12月8日
発見光度 19.1等
発見者 Alan Fitzsimmons (Asteroid Terrestrial-impact Last Alert System (ATLAS) search program)

・ 写真集

・ 軌道要素

Epoch 2019 July 16.0 TT = JDT 2458680.5
T 2019 July 8.53905 TT                                  MPCW
q   2.1259068            (2000.0)            P               Q
z  +0.0065299      Peri.  162.04971     -0.80546353     -0.57850889
 +/-0.0000109      Node   340.83004     +0.48429662     -0.51736677
e   0.9861181      Incl.   23.06921     +0.34159228     -0.63060216
From 352 observations 2018 Dec. 8-2019 May 5, mean residual 0".6.

・ 星図

・ 光度変化

        m1 = 11.5 + 5 logΔ + 10.0 log r

---------------------------------------------------------------------

軌道要素はM.P.E.C. 2019-J142に掲載されたものです。
星図はステラナビゲータ Ver.10 (アストロアーツ) で作成したものです。
光度グラフはComet for Windowsで作成したものです。

---------------------------------------------------------------------

Copyright(C) Seiichi Yoshida (comet@aerith.net). All rights reserved.